This is the latest recevied weather packets stored in our database for station/object SV9TNF-56. If no packets are shown the sender has not sent any weather packets the latest 10 day(s).
| Time | Temp. | Humidity | Pressure | Rain* | Wind** | Luminosity | Snow |
|---|---|---|---|---|---|---|---|
| 1788225483 | 25° C | 64% | 1010.5 hPa | 0 mm | 14.75 m/s, 301° | - | - |
| 1788225183 | 24.44° C | 62% | 1010.5 hPa | 0 mm | 14.31 m/s, 306° | - | - |
| 1788224883 | 24.44° C | 62% | 1010.5 hPa | 0 mm | 16.54 m/s, 296° | - | - |
| 1788224583 | 24.44° C | 63% | 1010.5 hPa | 0 mm | 12.52 m/s, 329° | - | - |
| 1788224283 | 24.44° C | 63% | 1010.5 hPa | 0 mm | 17.88 m/s, 318° | - | - |
| 1788223983 | 24.44° C | 63% | 1010.5 hPa | 0 mm | 13.86 m/s, 284° | - | - |
| 1788223683 | 24.44° C | 64% | 1010.5 hPa | 0 mm | 13.86 m/s, 322° | - | - |
| 1788223383 | 23.89° C | 66% | 1010.5 hPa | 0 mm | 9.83 m/s, 294° | - | - |
| 1788223082 | 23.89° C | 67% | 1010.5 hPa | 0 mm | 13.86 m/s, 243° | - | - |
| 1788222782 | 23.33° C | 74% | 1010.8 hPa | 0 mm | 13.86 m/s, 288° | - | - |
| 1788222482 | 23.33° C | 78% | 1010.8 hPa | 0 mm | 12.96 m/s, 291° | - | - |
| 1788222182 | 23.33° C | 78% | 1010.8 hPa | 0 mm | 6.26 m/s, 290° | - | - |
| 1788221882 | 23.33° C | 82% | 1010.8 hPa | 0 mm | 7.6 m/s, 278° | - | - |
| 1788221582 | 23.89° C | 83% | 1010.8 hPa | 0 mm | 7.6 m/s, 294° | - | - |
| 1788221282 | 23.89° C | 82% | 1010.8 hPa | 0 mm | 8.94 m/s, 300° | - | - |
| 1788220982 | 23.33° C | 80% | 1010.8 hPa | 0 mm | 7.15 m/s, 259° | - | - |
| 1788220682 | 23.89° C | 80% | 1010.8 hPa | 0 mm | 8.05 m/s, 300° | - | - |
| 1788220381 | 23.89° C | 80% | 1010.8 hPa | 0 mm | 5.81 m/s, 354° | - | - |
| 1788220082 | 23.89° C | 78% | 1010.8 hPa | 0 mm | 8.94 m/s, 270° | - | - |
| 1788219781 | 23.89° C | 79% | 1010.8 hPa | 0 mm | 8.49 m/s, 306° | - | - |
| 1788219481 | 23.89° C | 78% | 1010.8 hPa | 0 mm | 8.49 m/s, 284° | - | - |
| 1788219181 | 23.89° C | 78% | 1010.8 hPa | 0 mm | 6.26 m/s, 294° | - | - |
| 1788218881 | 23.89° C | 77% | 1010.8 hPa | 0 mm | 6.26 m/s, 278° | - | - |
| 1788218581 | 23.89° C | 77% | 1011.2 hPa | 0 mm | 6.71 m/s, 238° | - | - |
| 1788218281 | 23.89° C | 76% | 1011.2 hPa | 0 mm | 10.28 m/s, 282° | - | - |
* Rain latest hour (hover to see other rain measurements)
** Current wind speed in m/s (hover to see current wind gust speed)